Location: Ashtead
(51.3000°N, 0.3000°W)
Time: 12:18:01
(UTC+00:00)

Cosmos 1680 Rocket - Pass Details

Date: 26 September 2023
Orbit: 759 x 779 km, 74.1° (Epoch: 10 December)

Event Time Altitude Azimuth Distance (km) Brightness Sun altitude
Rises 02:18:41 0° 337° (NNW) 3,274 7.0 -31.2°
Reaches altitude 10° 02:21:09 10° 343° (NNW) 2,343 6.3 -30.9°
Maximum altitude 02:26:21 51° 59° (ENE) 982 4.3 -30.3°
Enters shadow 02:29:08 26° 123° (ESE) 1,510 5.1 -30.0°
